| time (UTC) | temp F | wind direction | speed knots | gust knots | rain 1hr in | rain 24hr in | rain mn in | humidity % | barometer mb |
| 20260502185845 | 61 | 299 | 1.7 | 5.2 | 0.00 | 0.00 | 0.00 | 63 | 1018.2 |
| 20260502185144 | 60 | 297 | 2.6 | 5.2 | 0.00 | 0.00 | 0.00 | 64 | 1018.2 |
| 20260502184443 | 60 | 301 | 2.6 | 6.1 | 0.00 | 0.00 | 0.00 | 61 | 1018.6 |
| 20260502183742 | 60 | 295 | 3.5 | 6.1 | 0.00 | 0.00 | 0.00 | 62 | 1018.7 |
| 20260502183042 | 61 | 292 | 3.5 | 5.2 | 0.00 | 0.00 | 0.00 | 57 | 1018.5 |
| 20260502182340 | 62 | 307 | 1.7 | 4.3 | 0.00 | 0.00 | 0.00 | 51 | 1018.7 |
| 20260502181640 | 61 | 324 | 1.7 | 3.5 | 0.00 | 0.00 | 0.00 | 51 | 1018.8 |
| 20260502180938 | 61 | 300 | 0.9 | 3.5 | 0.00 | 0.00 | 0.00 | 49 | 1018.7 |
| 20260502180237 | 60 | 306 | 0.9 | 4.3 | 0.00 | 0.00 | 0.00 | 46 | 1018.3 |
| 20260502163826 | 56 | 267 | 3.5 | 6.1 | 0.00 | 0.00 | 0.00 | 59 | 1019.3 |
| 20260502163124 | 56 | 266 | 4.3 | 6.1 | 0.00 | 0.00 | 0.00 | 61 | 1019.4 |
| 20260502162423 | 56 | 263 | 3.5 | 6.1 | 0.00 | 0.00 | 0.00 | 60 | 1019.4 |
| 20260502161723 | 56 | 259 | 3.5 | 6.1 | 0.00 | 0.00 | 0.00 | 60 | 1019.4 |
| 20260502161023 | 56 | 255 | 4.3 | 5.2 | 0.00 | 0.00 | 0.00 | 59 | 1019.4 |
| 20260502160320 | 56 | 257 | 4.3 | 5.2 | 0.00 | 0.00 | 0.00 | 59 | 1019.4 |
| 20260502152114 | 54 | 236 | 2.6 | 4.3 | 0.00 | 0.00 | 0.00 | 64 | 1019.4 |
| 20260502151413 | 54 | 246 | 1.7 | 3.5 | 0.00 | 0.00 | 0.00 | 64 | 1019.4 |
| 20260502150712 | 53 | 247 | 1.7 | 3.5 | 0.00 | 0.00 | 0.00 | 64 | 1019.4 |
| 20260502123250 | 48 | 138 | 0.9 | 2.6 | 0.00 | 0.00 | 0.00 | 67 | 1018.7 |
| 20260502122548 | 48 | 0 | 0.0 | 0.9 | 0.00 | 0.00 | 0.00 | 65 | 1018.6 |
| 20260502121848 | 49 | 0 | 0.0 | 0.9 | 0.00 | 0.00 | 0.00 | 65 | 1018.4 |
| 20260502121146 | 49 | 0 | 0.0 | 0.9 | 0.00 | 0.00 | 0.00 | 63 | 1018.4 |
| 20260502120446 | 48 | 0 | 0.0 | 1.7 | 0.00 | 0.00 | 0.00 | 62 | 1018.9 |
| 20260502115744 | 48 | 0 | 0.0 | 1.7 | 0.00 | 0.00 | 0.00 | 59 | 1018.9 |
| 20260502115043 | 47 | 0 | 0.0 | 1.7 | 0.00 | 0.00 | 0.00 | 58 | 1018.7 |
| 20260502114342 | 46 | 193 | 0.9 | 3.5 | 0.00 | 0.00 | 0.00 | 59 | 1018.2 |
| 20260502114009 | 47 | 218 | 1.7 | 5.2 | 0.00 | 0.00 | 0.00 | 60 | 1018.8 |
| 20260502113641 | 47 | 218 | 1.7 | 5.2 | 0.00 | 0.00 | 0.00 | 60 | 1018.8 |
| 20260502112941 | 49 | 230 | 1.7 | 5.2 | 0.00 | 0.00 | 0.00 | 58 | 1018.5 |
| 20260502112239 | 51 | 210 | 1.7 | 4.3 | 0.00 | 0.00 | 0.00 | 55 | 1018.2 |
| 20260502111538 | 51 | 0 | 0.0 | 1.7 | 0.00 | 0.00 | 0.00 | 57 | 1018.0 |
| 20260502110837 | 51 | 0 | 0.0 | 2.6 | 0.00 | 0.00 | 0.00 | 61 | 1017.9 |
| 20260502110136 | 51 | 0 | 0.0 | 1.7 | 0.00 | 0.00 | 0.00 | 62 | 1018.1 |
| 20260502105435 | 51 | 0 | 0.0 | 0.0 | 0.00 | 0.00 | 0.00 | 60 | 1018.1 |
| 20260502104734 | 50 | 0 | 0.0 | 1.7 | 0.00 | 0.00 | 0.00 | 57 | 1018.5 |
| 20260502104033 | 51 | 0 | 0.0 | 0.9 | 0.00 | 0.00 | 0.00 | 58 | 1018.4 |
| 20260502103332 | 51 | 0 | 0.0 | 1.7 | 0.00 | 0.00 | 0.00 | 55 | 1018.5 |
| 20260502102632 | 50 | 0 | 0.0 | 3.5 | 0.00 | 0.00 | 0.00 | 55 | 1018.4 |
| 20260502101229 | 50 | 83 | 0.9 | 2.6 | 0.00 | 0.00 | 0.00 | 62 | 1018.2 |
| 20260502100528 | 50 | 0 | 0.0 | 2.6 | 0.00 | 0.00 | 0.00 | 64 | 1018.2 |
| 20260502090920 | 53 | 234 | 2.6 | 5.2 | 0.00 | 0.00 | 0.00 | 53 | 1017.7 |
| 20260502090220 | 54 | 0 | 0.0 | 2.6 | 0.00 | 0.00 | 0.00 | 56 | 1017.7 |
| 20260502071003 | 53 | 85 | 0.9 | 2.6 | 0.00 | 0.00 | 0.00 | 56 | 1018.2 |
| 20260502070302 | 53 | 0 | 0.0 | 0.9 | 0.00 | 0.00 | 0.00 | 59 | 1018.2 |
| 20260502065601 | 53 | 0 | 0.0 | 1.7 | 0.00 | 0.00 | 0.00 | 52 | 1018.3 |
| 20260502064900 | 53 | 0 | 0.0 | 1.7 | 0.00 | 0.00 | 0.00 | 58 | 1018.2 |
| 20260502064159 | 53 | 0 | 0.0 | 1.7 | 0.00 | 0.00 | 0.00 | 56 | 1018.0 |
| 20260502063458 | 54 | 0 | 0.0 | 2.6 | 0.00 | 0.00 | 0.00 | 50 | 1018.1 |
| 20260502062757 | 54 | 0 | 0.0 | 1.7 | 0.00 | 0.00 | 0.00 | 44 | 1018.1 |
| 20260502062056 | 52 | 0 | 0.0 | 2.6 | 0.00 | 0.00 | 0.00 | 48 | 1018.4 |
| 20260502061355 | 52 | 73 | 0.9 | 2.6 | 0.00 | 0.00 | 0.00 | 57 | 1018.3 |
| 20260502060654 | 52 | 83 | 1.7 | 3.5 | 0.00 | 0.00 | 0.00 | 55 | 1018.3 |
| 20260502055953 | 53 | 63 | 2.6 | 4.3 | 0.00 | 0.00 | 0.00 | 52 | 1018.1 |
| 20260502055252 | 54 | 81 | 1.7 | 3.5 | 0.00 | 0.00 | 0.00 | 52 | 1018.0 |
| 20260502054551 | 54 | 57 | 2.6 | 3.5 | 0.00 | 0.00 | 0.00 | 48 | 1018.1 |
| 20260502053850 | 55 | 0 | 0.0 | 1.7 | 0.00 | 0.00 | 0.00 | 44 | 1018.0 |
| 20260502053149 | 55 | 0 | 0.0 | 3.5 | 0.00 | 0.00 | 0.00 | 47 | 1018.2 |
| 20260502052448 | 56 | 94 | 1.7 | 3.5 | 0.00 | 0.00 | 0.00 | 45 | 1017.9 |
| 20260502051747 | 56 | 0 | 0.0 | 2.6 | 0.00 | 0.00 | 0.00 | 35 | 1017.9 |
| 20260502051046 | 55 | 0 | 0.0 | 2.6 | 0.00 | 0.00 | 0.00 | 38 | 1018.1 |
| 20260502050345 | 54 | 211 | 0.9 | 5.2 | 0.00 | 0.00 | 0.00 | 39 | 1018.2 |
| 20260502045644 | 54 | 217 | 3.5 | 7.8 | 0.00 | 0.00 | 0.00 | 52 | 1018.1 |
| 20260502044943 | 56 | 227 | 3.5 | 7.8 | 0.00 | 0.00 | 0.00 | 50 | 1017.7 |
| 20260502044242 | 57 | 122 | 1.7 | 3.5 | 0.00 | 0.00 | 0.00 | 34 | 1018.1 |
| 20260502043541 | 57 | 122 | 1.7 | 3.5 | 0.00 | 0.00 | 0.00 | 34 | 1018.1 |
| 20260502042840 | 58 | 128 | 0.9 | 3.5 | 0.00 | 0.00 | 0.00 | 32 | 1017.8 |
| 20260502042139 | 58 | 132 | 1.7 | 3.5 | 0.00 | 0.00 | 0.00 | 32 | 1017.8 |
| 20260502041438 | 59 | 0 | 0.0 | 2.6 | 0.00 | 0.00 | 0.00 | 31 | 1017.8 |
| 20260502040737 | 59 | 207 | 1.7 | 4.3 | 0.00 | 0.00 | 0.00 | 31 | 1017.7 |
| 20260502040036 | 60 | 195 | 2.6 | 4.3 | 0.00 | 0.00 | 0.00 | 28 | 1018.3 |
| 20260502035335 | 59 | 191 | 1.7 | 4.3 | 0.00 | 0.00 | 0.00 | 30 | 1017.7 |
| 20260502034634 | 59 | 198 | 2.6 | 4.3 | 0.00 | 0.00 | 0.00 | 30 | 1017.7 |
| 20260502033233 | 60 | 178 | 2.6 | 5.2 | 0.00 | 0.00 | 0.00 | 29 | 1017.5 |
| 20260502031830 | 60 | 187 | 3.5 | 5.2 | 0.00 | 0.00 | 0.00 | 27 | 1017.4 |
| 20260502031129 | 60 | 197 | 2.6 | 5.2 | 0.00 | 0.00 | 0.00 | 28 | 1017.3 |
| 20260502030428 | 60 | 0 | 0.0 | 1.7 | 0.00 | 0.00 | 0.00 | 31 | 1017.1 |
| 20260502025727 | 61 | 0 | 0.0 | 2.6 | 0.00 | 0.00 | 0.00 | 28 | 1017.6 |
| 20260502025025 | 61 | 197 | 0.9 | 2.6 | 0.00 | 0.00 | 0.00 | 27 | 1017.6 |
| 20260502024325 | 61 | 214 | 0.9 | 2.6 | 0.00 | 0.00 | 0.00 | 27 | 1017.0 |
| 20260502023623 | 61 | 245 | 0.9 | 2.6 | 0.00 | 0.00 | 0.00 | 29 | 1016.9 |
| 20260502022924 | 62 | 227 | 1.7 | 2.6 | 0.00 | 0.00 | 0.00 | 29 | 1017.4 |
| 20260502022221 | 62 | 221 | 0.9 | 1.7 | 0.00 | 0.00 | 0.00 | 26 | 1017.4 |
| 20260502021520 | 63 | 0 | 0.0 | 2.6 | 0.00 | 0.00 | 0.00 | 29 | 1017.4 |
| 20260502020819 | 63 | 0 | 0.0 | 3.5 | 0.00 | 0.00 | 0.00 | 27 | 1017.2 |
| 20260502020119 | 63 | 253 | 0.9 | 3.5 | 0.00 | 0.00 | 0.00 | 28 | 1017.3 |
| 20260502015417 | 63 | 249 | 1.7 | 3.5 | 0.00 | 0.00 | 0.00 | 28 | 1017.2 |
| 20260502014718 | 64 | 263 | 1.7 | 3.5 | 0.00 | 0.00 | 0.00 | 28 | 1016.7 |
| 20260502014015 | 64 | 258 | 1.7 | 3.5 | 0.00 | 0.00 | 0.00 | 30 | 1016.6 |
| 20260502013314 | 64 | 262 | 0.9 | 3.5 | 0.00 | 0.00 | 0.00 | 33 | 1016.6 |
| 20260502012613 | 64 | 251 | 0.9 | 3.5 | 0.00 | 0.00 | 0.00 | 33 | 1016.6 |
| 20260502011912 | 63 | 268 | 0.9 | 3.5 | 0.00 | 0.00 | 0.00 | 33 | 1016.6 |
| 20260502011211 | 62 | 287 | 1.7 | 4.3 | 0.00 | 0.00 | 0.00 | 33 | 1016.9 |
| 20260502010510 | 62 | 281 | 2.6 | 5.2 | 0.00 | 0.00 | 0.00 | 35 | 1017.0 |
| 20260502005809 | 62 | 267 | 3.5 | 4.3 | 0.00 | 0.00 | 0.00 | 36 | 1016.9 |
| 20260502005108 | 61 | 271 | 2.6 | 5.2 | 0.00 | 0.00 | 0.00 | 48 | 1016.8 |
| 20260502004407 | 61 | 288 | 3.5 | 5.2 | 0.00 | 0.00 | 0.00 | 43 | 1016.9 |
| 20260502003706 | 61 | 300 | 3.5 | 6.1 | 0.00 | 0.00 | 0.00 | 45 | 1016.9 |
| 20260502003005 | 61 | 318 | 2.6 | 6.1 | 0.00 | 0.00 | 0.00 | 48 | 1016.8 |
| 20260502002306 | 61 | 291 | 3.5 | 6.1 | 0.00 | 0.00 | 0.00 | 46 | 1017.0 |
| 20260502001604 | 61 | 307 | 3.5 | 6.1 | 0.00 | 0.00 | 0.00 | 46 | 1017.1 |
| 20260502000902 | 61 | 285 | 2.6 | 6.1 | 0.00 | 0.00 | 0.00 | 44 | 1017.1 |
| 20260502000203 | 61 | 294 | 3.5 | 6.1 | 0.00 | 0.00 | 0.00 | 42 | 1017.2 |
| 20260501235500 | 61 | 286 | 1.7 | 7.8 | 0.00 | 0.00 | 0.00 | 40 | 1017.1 |
| 20260501234759 | 61 | 312 | 4.3 | 7.8 | 0.00 | 0.00 | 0.00 | 40 | 1017.4 |
| 20260501234059 | 61 | 323 | 1.7 | 7.8 | 0.00 | 0.00 | 0.00 | 45 | 1017.4 |
| 20260501233357 | 61 | 306 | 4.3 | 7.8 | 0.00 | 0.00 | 0.00 | 42 | 1017.4 |
| 20260501232656 | 61 | 9 | 3.5 | 7.8 | 0.00 | 0.00 | 0.00 | 42 | 1017.5 |
| 20260501231955 | 61 | 300 | 3.5 | 7.0 | 0.00 | 0.00 | 0.00 | 48 | 1017.5 |
| 20260501231254 | 61 | 301 | 3.5 | 5.2 | 0.00 | 0.00 | 0.00 | 45 | 1017.6 |
| 20260501230554 | 60 | 323 | 2.6 | 6.1 | 0.00 | 0.00 | 0.00 | 44 | 1017.0 |
| 20260501225852 | 60 | 287 | 3.5 | 5.2 | 0.00 | 0.00 | 0.00 | 43 | 1017.0 |
| 20260501225151 | 60 | 300 | 1.7 | 6.1 | 0.00 | 0.00 | 0.00 | 45 | 1017.2 |
| 20260501224450 | 60 | 289 | 4.3 | 8.7 | 0.00 | 0.00 | 0.00 | 44 | 1017.6 |
| 20260501223048 | 60 | 290 | 4.3 | 7.8 | 0.00 | 0.00 | 0.00 | 43 | 1017.7 |
| 20260501222347 | 60 | 294 | 4.3 | 7.8 | 0.00 | 0.00 | 0.00 | 43 | 1017.7 |
| 20260501221647 | 59 | 305 | 3.5 | 8.7 | 0.00 | 0.00 | 0.00 | 43 | 1018.1 |
| 20260501220945 | 59 | 287 | 5.2 | 7.8 | 0.00 | 0.00 | 0.00 | 41 | 1018.3 |
| 20260501220244 | 59 | 285 | 5.2 | 8.7 | 0.00 | 0.00 | 0.00 | 40 | 1018.2 |
| 20260501215543 | 59 | 288 | 5.2 | 8.7 | 0.00 | 0.00 | 0.00 | 39 | 1018.3 |
| 20260501214141 | 59 | 290 | 4.3 | 7.8 | 0.00 | 0.00 | 0.00 | 37 | 1018.2 |
| 20260501213440 | 59 | 279 | 4.3 | 6.1 | 0.00 | 0.00 | 0.00 | 40 | 1018.2 |
| 20260501212739 | 59 | 289 | 4.3 | 6.1 | 0.00 | 0.00 | 0.00 | 38 | 1018.2 |
| 20260501212038 | 59 | 281 | 4.3 | 6.1 | 0.00 | 0.00 | 0.00 | 38 | 1018.4 |
| 20260501211338 | 59 | 282 | 4.3 | 6.1 | 0.00 | 0.00 | 0.00 | 37 | 1018.3 |
| 20260501210638 | 59 | 269 | 3.5 | 6.1 | 0.00 | 0.00 | 0.00 | 38 | 1018.3 |
| 20260501205234 | 59 | 272 | 4.3 | 6.1 | 0.00 | 0.00 | 0.00 | 37 | 1018.5 |
| 20260501204533 | 59 | 290 | 4.3 | 9.6 | 0.00 | 0.00 | 0.00 | 38 | 1018.6 |
| 20260501203832 | 58 | 285 | 4.3 | 9.6 | 0.00 | 0.00 | 0.00 | 36 | 1019.0 |
| 20260501203131 | 58 | 293 | 7.0 | 10.4 | 0.00 | 0.00 | 0.00 | 40 | 1018.8 |
| 20260501202431 | 57 | 291 | 7.0 | 9.6 | 0.00 | 0.00 | 0.00 | 44 | 1019.0 |
| 20260501201729 | 57 | 297 | 7.8 | 10.4 | 0.00 | 0.00 | 0.00 | 47 | 1018.7 |
| 20260501201028 | 57 | 294 | 7.8 | 10.4 | 0.00 | 0.00 | 0.00 | 47 | 1018.7 |
| 20260501200328 | 57 | 292 | 8.7 | 10.4 | 0.00 | 0.00 | 0.00 | 47 | 1018.8 |
| 20260501195626 | 57 | 290 | 7.0 | 11.3 | 0.00 | 0.00 | 0.00 | 46 | 1018.8 |
| 20260501194925 | 57 | 294 | 7.0 | 11.3 | 0.00 | 0.00 | 0.00 | 48 | 1018.3 |
| 20260501194224 | 57 | 292 | 7.8 | 11.3 | 0.00 | 0.00 | 0.00 | 50 | 1018.3 |
| 20260501193526 | 57 | 298 | 5.2 | 8.7 | 0.00 | 0.00 | 0.00 | 49 | 1018.4 |
| 20260501192822 | 57 | 303 | 5.2 | 9.6 | 0.00 | 0.00 | 0.00 | 49 | 1018.5 |
| 20260501192123 | 57 | 308 | 4.3 | 8.7 | 0.00 | 0.00 | 0.00 | 48 | 1018.4 |
| 20260501191420 | 57 | 297 | 5.2 | 8.7 | 0.00 | 0.00 | 0.00 | 51 | 1018.5 |
| 20260501190719 | 57 | 289 | 5.2 | 8.7 | 0.00 | 0.00 | 0.00 | 48 | 1018.5 |